Weather History for KDAG - November, 2013

Change the Weather History Date:

Sunday, November 3, 2013

  Actual Average Record
Temperature  
Mean Temperature 65 °F -  
Max Temperature 75 °F 77 °F 88 °F (1988)
Min Temperature 55 °F 47 °F 35 °F (1956)
Growing Degree Days 15 (Base 50)    
Moisture  
Dew Point 30 °F    
Average Humidity 28    
Maximum Humidity 53    
Minimum Humidity 18    
Precipitation  
Precipitation 0.00 in - - ()
Sea Level Pressure  
Sea Level Pressure 29.76 in    
Wind  
Wind Speed 15 mph (West)    
Max Wind Speed 29 mph    
Max Gust Speed 36 mph    
Visibility 10 miles    
Events      
Averages and records for this station are not official NWS values.
T = Trace of Precipitation, MM = Missing Value Source: NWS Daily Summary

Daily Weather History Graph

Daily Weather History Graph

Search for Another Location

Airport or City:

Trip Planner

Search our weather history database for the weather conditions in past years. The results will help you decide how hot, cold, wet, or windy it might be!

Date:

Astronomy

Nov. 03, 2013 Rise Set
Actual Time 6:10 AM PST 4:50 PM PST
Civil Twilight 5:43 AM PST 5:17 PM PST
Nautical Twilight 5:13 AM PST 5:47 PM PST
Astronomical Twilight 4:44 AM PST 6:16 PM PST
Moon 6:18 AM PST (11/3) 5:10 PM PST (11/3)
Length of Visible Light 11h 33m
Length of Day
10h 40m
New Moon, 0% of the Moon is Illuminated
Nov 3
New Moon
Nov 9
First Quarter
Nov 17
Full
Nov 25
Last Quarter
Dec 2
New

Hourly Weather History & Observations

Time (PST) Temp. Dew Point Humidity Pressure Visibility Wind Dir Wind Speed Gust Speed Precip Events Conditions
12:50 AM 64.0 °F 27.0 °F 25% 29.78 in 10.0 mi SW 11.5 mph - N/A   Clear
1:50 AM 64.0 °F 27.0 °F 25% 29.76 in 10.0 mi SSW 11.5 mph - N/A   Clear
1:50 AM 64.9 °F 27.0 °F 24% 29.75 in 10.0 mi WSW 20.7 mph - N/A   Clear
2:50 AM 64.9 °F 27.0 °F 24% 29.73 in 10.0 mi SW 28.8 mph 35.7 mph N/A   Clear
3:50 AM 64.0 °F 26.1 °F 24% 29.73 in 10.0 mi SW 24.2 mph 31.1 mph N/A   Clear
4:50 AM 63.0 °F 27.0 °F 26% 29.73 in 10.0 mi WSW 18.4 mph - N/A   Clear
5:50 AM 59.0 °F 28.0 °F 31% 29.77 in 10.0 mi WNW 16.1 mph - N/A   Clear
6:50 AM 55.9 °F 28.9 °F 36% 29.80 in 10.0 mi NW 15.0 mph - N/A   Clear
7:50 AM 61.0 °F 30.9 °F 32% 29.82 in 10.0 mi WNW 12.7 mph - N/A   Clear
8:50 AM 64.9 °F 33.1 °F 31% 29.81 in 10.0 mi West 17.3 mph - N/A   Clear
9:50 AM 70.0 °F 34.0 °F 27% 29.80 in 10.0 mi WNW 20.7 mph 26.5 mph N/A   Clear
10:50 AM 72.0 °F 34.0 °F 25% 29.80 in 10.0 mi West 19.6 mph 25.3 mph N/A   Clear
11:50 AM 73.9 °F 30.9 °F 21% 29.78 in 10.0 mi West 15.0 mph 23.0 mph N/A   Clear
12:50 PM 75.0 °F 28.9 °F 18% 29.74 in 10.0 mi West 11.5 mph - N/A   Clear
1:50 PM 75.9 °F 28.9 °F 18% 29.73 in 10.0 mi WNW 9.2 mph - N/A   Clear
2:50 PM 75.9 °F 28.9 °F 18% 29.71 in 10.0 mi NW 10.4 mph - N/A   Clear
3:50 PM 75.0 °F 28.0 °F 18% 29.71 in 10.0 mi WNW 9.2 mph - N/A   Clear
4:50 PM 70.0 °F 28.9 °F 22% 29.71 in 10.0 mi WNW 4.6 mph - N/A   Clear
5:50 PM 64.9 °F 28.0 °F 25% 29.74 in 10.0 mi NW 4.6 mph - N/A   Clear
6:50 PM 64.9 °F 32.0 °F 29% 29.76 in 10.0 mi NW 6.9 mph - N/A   Clear
7:50 PM 62.1 °F 35.1 °F 37% 29.78 in 10.0 mi WNW 10.4 mph - N/A   Clear
8:50 PM 61.0 °F 36.0 °F 39% 29.79 in 10.0 mi West 12.7 mph - N/A   Clear
9:50 PM 57.0 °F 36.0 °F 45% 29.76 in 10.0 mi WSW 9.2 mph - N/A   Clear
10:50 PM 55.0 °F 37.9 °F 53% 29.75 in 10.0 mi West 15.0 mph - N/A   Clear